sat.trackr.live / text

‹ back to catalog

STARLINK-3817

NORAD 52367 · 2022-045AN

PAYLOAD ACTIVE UNKNOWN

§ Identity

Operator
Country
US
Launch date
2022-04-29
Launch site
AFETR
Launch vehicle
Mass (kg)
RCS (m²)

Purposes: comms

External: N2YO · Heavens-Above · Gunter

§ Orbital elements

Epoch: 2026-09-19T22:54:18.665280Z

Period
93.90 min
Inclination
53.1613°
Eccentricity
0.0001201
Mean motion
15.33551479 rev/d
Perigee alt
464.4 km
Apogee alt
466.0 km
Semi-major
6,843.4 km
B*
4.0673e-5
RAAN
28.2094°
Arg perigee
80.2601°
Mean anomaly
279.8537°
Rev number
24,536

§ Raw data

STARLINK-38171 52367U 22045AN  26262.95438270  .00000965  00000+0  40673-4 0  99952 52367  53.1613  28.2094 0001201  80.2601 279.8537 15.33551479245364

JSON: /api/v1/satellites/52367 · /tle

For live sub-satellite position, see the globe view (requires WebGL).

§ Visibility from observer

Set your observer location to see the next 7 days of passes ≥ 10°. The values pass through the URL so the page stays shareable.

No JS? Fill the form by hand. The geolocation button needs JavaScript.